Flag for U.S.A. Weather past 2 weeks in Lakewood, New Jersey, U.S.A.

Now
73 °F

Sunny.


Feels Like: 77 °F
Forecast: 49 / 74 °F
Wind: 7 mph from West

Location: Belmar-Farmdale

Current Time: Sep 18, 2014 at 2:47:21 PM

Latest Report: Sep 18, 2014 at 1:55 PM


Visibility: 10 mi

Pressure: 30.00 "Hg

Humidity: 38%

Dew point: 46 °F

Location of LakewoodLocation

Historic Weather in Lakewood — Graph

°F

Lakewood temperature yesterday

Maximum temperature yesterday: 70 °F (at 12:35 PM)
Minimum temperature yesterday: 50 °F (at 6:55 AM)
Average temperature yesterday: 60 °F

Past Weeks' High & Low Weather Summary

 TemperatureHumidityPressure
High91 °F (Sep 6, 2:35 PM)89% (Sep 5, 8:35 AM)30.32 "Hg (Sep 5, 8:35 AM)
Low48 °F (Sep 15, 5:15 AM)38% (Sep 18, 12:55 PM)29.84 "Hg (Sep 11, 3:35 PM)
Average68 °F69%30.09 "Hg
* Reported Sep 3 1:15 PM — Sep 18 1:55 PM, Lakewood, Weather by CustomWeather, © 2014

Note: Actual official high and low records may vary slightly from our data, if they occured in-between our weather recording intervals... More about our weather records

Advertising

Lakewood weather history for previous 24 hours

 ConditionsComfort  
Time TempWeatherWind HumidityBarometerVisibility
1:55 PM
Sep 18
73 °FSunny.7 mph38%30.00 "Hg10 mi
1:35 PM73 °FScattered clouds.8 mph38%30.00 "Hg10 mi
1:15 PM73 °FScattered clouds.8 mph41%30.01 "Hg10 mi
12:55 PM73 °FSunny.5 mph38%30.01 "Hg10 mi
12:35 PM73 °FSunny.7 mph41%30.01 "Hg10 mi
12:15 PM72 °FPassing clouds.8 mph44%30.01 "Hg10 mi
11:55 AM72 °FPassing clouds.7 mph44%30.01 "Hg10 mi
11:35 AM72 °FSunny.3 mph44%30.01 "Hg10 mi
11:15 AM72 °FSunny.8 mph44%30.01 "Hg10 mi
10:55 AM70 °FSunny.5 mph46%30.02 "Hg10 mi
10:35 AM70 °FSunny.5 mph50%30.02 "Hg10 mi
10:15 AM68 °FSunny.6 mph56%30.02 "Hg10 mi
9:55 AM66 °FSunny.5 mph64%30.01 "Hg10 mi
9:35 AM64 °FSunny.5 mph64%30.02 "Hg10 mi
9:15 AM63 °FSunny.7 mph68%30.01 "Hg10 mi
8:55 AM59 °FSunny.7 mph77%30.00 "Hg10 mi
8:35 AM57 °FSunny.6 mph77%30.00 "Hg10 mi
8:15 AM55 °FSunny.6 mph77%30.01 "Hg10 mi
7:55 AM54 °FSunny.6 mph82%30.00 "Hg10 mi
7:35 AM54 °FClear.6 mph77%30.00 "Hg10 mi
7:15 AM52 °FClear.3 mph82%30.00 "Hg10 mi
6:55 AM52 °FClear.5 mph82%29.99 "Hg10 mi
6:35 AM52 °FClear.3 mph82%29.99 "Hg10 mi
6:15 AM54 °FClear.3 mph77%29.98 "Hg10 mi
5:55 AM54 °FClear.3 mph77%29.98 "Hg10 mi
5:35 AM54 °FClear.3 mph77%29.97 "Hg10 mi
5:15 AM52 °FClear.5 mph82%29.97 "Hg10 mi
4:55 AM54 °FClear.3 mph77%29.97 "Hg10 mi
4:35 AM54 °FClear.3 mph77%29.97 "Hg10 mi
4:15 AM54 °FClear.3 mph77%29.97 "Hg10 mi
3:55 AM52 °FClear.3 mph82%29.96 "Hg10 mi
3:35 AM52 °FClear.3 mph82%29.96 "Hg10 mi
3:15 AM54 °FClear.3 mph77%29.96 "Hg10 mi
2:55 AM52 °FClear.3 mph82%29.97 "Hg10 mi
2:35 AM54 °FClear.3 mph77%29.97 "Hg10 mi
2:15 AM54 °FClear.3 mph77%29.97 "Hg10 mi
1:55 AM54 °FClear.3 mph77%29.97 "Hg10 mi
1:35 AM55 °FClear.3 mph77%29.97 "Hg10 mi
1:15 AM55 °FClear.3 mph72%29.97 "Hg10 mi
12:55 AM55 °FClear.3 mph72%29.97 "Hg10 mi
12:35 AM55 °FClear.3 mph77%29.98 "Hg10 mi
12:15 AM55 °FClear.3 mph72%29.98 "Hg10 mi
11:55 PM
Sep 17
59 °FClear.3 mph68%29.98 "Hg10 mi
11:35 PM57 °FClear.5 mph72%29.98 "Hg10 mi
11:15 PM57 °FClear.3 mph72%29.99 "Hg10 mi
10:55 PM57 °FClear.No wind72%29.99 "Hg10 mi
10:35 PM55 °FClear.No wind77%29.99 "Hg10 mi
10:15 PM57 °FClear.No wind72%30.00 "Hg10 mi
9:55 PM55 °FClear.No wind77%30.00 "Hg10 mi
9:35 PM57 °FClear.No wind72%30.00 "Hg10 mi
9:15 PM61 °FClear.No wind63%30.00 "Hg10 mi
8:55 PM61 °FClear.3 mph63%30.00 "Hg10 mi
8:35 PM61 °FClear.No wind63%30.00 "Hg10 mi
8:15 PM61 °FPassing clouds.No wind63%29.99 "Hg10 mi
7:55 PM61 °FPartly sunny.No wind63%29.99 "Hg10 mi
7:35 PM61 °FScattered clouds.No wind63%29.98 "Hg10 mi
7:15 PM63 °FSunny.No wind59%29.98 "Hg10 mi
6:55 PM63 °FSunny.3 mph59%29.98 "Hg10 mi
6:35 PM64 °FSunny.6 mph56%29.99 "Hg10 mi
6:15 PM66 °FSunny.6 mph52%29.98 "Hg10 mi
5:55 PM66 °FPassing clouds.6 mph52%29.98 "Hg10 mi
5:35 PM66 °FSunny.7 mph56%29.98 "Hg10 mi
5:15 PM66 °FSunny.6 mph52%29.98 "Hg10 mi
4:55 PM68 °FSunny.9 mph49%29.97 "Hg10 mi
4:35 PM66 °FSunny.7 mph52%29.97 "Hg10 mi
4:15 PM68 °FSunny.7 mph49%29.97 "Hg10 mi
3:55 PM70 °FSunny.5 mph46%29.97 "Hg10 mi
3:35 PM68 °FPassing clouds.6 mph46%29.97 "Hg10 mi
3:15 PM70 °FPartly sunny.5 mph46%29.98 "Hg10 mi
2:55 PM70 °FPartly sunny.9 mph46%29.99 "Hg10 mi
2:35 PM70 °FPartly sunny.8 mph46%29.99 "Hg10 mi
Weather by CustomWeather, © 2014

See weather overviewHow to use our weather pages